Location: Salillas
(41.9950°N, 0.2228°W)
Time: 20:40:01
(UTC+00:00)

Cosmos 2074 Rocket - Pass Details

Date: 29 March 2020
Orbit: 967 x 986 km, 82.9° (Epoch: 31 May)

Event Time Altitude Azimuth Distance (km) Brightness Sun altitude
Rises 20:15:45 0° 355° (N) 3,689 7.5 -20.8°
Reaches altitude 10° 20:18:18 10° 359° (N) 2,740 6.7 -21.2°
Maximum altitude 20:24:32 64° 80° (E) 1,086 4.0 -22.2°
Enters shadow 20:26:38 42° 143° (SE) 1,378 4.3 -22.6°
